Regional Weather Roundup
Issued by NWS

Home | Current Version | Previous Version | Text Only | Print | Product List | Glossary Off
Versions: 1 2 3 4 5 6 7 8 9 10 11 12 13 14 15 16 17 18 19 20 21 22 23 24 25 26 27 28 29 30 31 32 33 34 35 36 37 38 39 40 41 42 43 44 45 46 47 48 49 50

000
ASUS43 KLSX 242307
RWRMO

WEATHER SUMMARY FOR MISSOURI
NATIONAL WEATHER SERVICE SPRINGFIELD MO
600 PM CDT THU APR 24 2014

NOTE: "FAIR" INDICATES FEW OR NO CLOUDS BELOW 12,000 FEET WITH NO
       SIGNIFICANT WEATHER AND/OR OBSTRUCTIONS TO VISIBILITY.
       CURRENT SKY AND/OR WEATHER CONDITIONS ARE NOT AVAILABLE FOR
       CHILLICOTHE AND FARMINGTON.

MOZ001>031-035>038-043-044-053-054-250000-
...NORTHERN AND WESTERN MISSOURI...

CITY           SKY/WX    TMP DP  RH WIND       PRES   REMARKS
KANSAS CTY INT CLOUDY    57  47  69 NW16G25   29.76R
KANSAS C DTWN  CLOUDY    60  47  61 NW13G23   29.75R
LEE`S SUMMIT   CLOUDY    57  49  74 NW16G26   29.74R
ST JOSEPH      CLOUDY    58  49  72 NW13      29.76R
CHILLICOTHE      N/A     55  51  86 NW10      29.69R
KIRKSVILLE     LGT RAIN  54  54 100 NW6       29.64F

$$
MOZ066>068-077>081-088>096-101>105-250000-
...SOUTHWEST MISSOURI...

CITY           SKY/WX    TMP DP  RH WIND       PRES   REMARKS
SPRINGFIELD    CLOUDY    59  54  83 W6        29.64F
JOPLIN         LGT RAIN  58  54  86 NW13      29.74R

$$
MOZ032>034-039>042-045>050-055>058-069>072-250000-
...CENTRAL MISSOURI...

CITY           SKY/WX    TMP DP  RH WIND       PRES   REMARKS
COLUMBIA       LGT RAIN  57  56  96 S6        29.62F
JEFFERSON CITY CLOUDY    58  56  93 S6        29.64F
ROLLA          RAIN      56  54  93 N6        29.65F FOG
SEDALIA        CLOUDY    59  54  83 NW14G24   29.67R
WHITEMAN AFB   CLOUDY    57  49  74 NW10      29.68R
OSAGE BEACH    CLOUDY    57  55  94 SW5       29.68R

$$
MOZ051-052-059>065-250000-
...EAST CENTRAL MISSOURI...

CITY           SKY/WX    TMP DP  RH WIND       PRES   REMARKS
ST LOUIS INTL  CLOUDY    78  49  35 S16G25    29.60F
SPIRIT OF STL  CLOUDY    73  54  49 W32G49    29.63R HAZE
ST CHARLES     CLOUDY    76  50  40 S14       29.58F

$$
MOZ072>076-082>087-097>100-106>115-250000-
...SOUTH CENTRAL AND SOUTHEAST MISSOURI...

CITY           SKY/WX    TMP DP  RH WIND       PRES   REMARKS
CAPE GIRARDEAU PTSUNNY   76  51  41 S20G29    29.66F
FARMINGTON     CLOUDY    73  54  49 S14G22    29.67F
POPLAR BLUFF   TSTM      71  58  63 SW9       29.68R
WEST PLAINS    CLOUDY    67  56  67 S9G21     29.68F

$$



USA.gov is the U.S. government's official web portal to all federal, state and local government web resources and services.